Weather in Kursavka

Russia / Stavropol Krai     44°27′12″N   42°29′35″E
temp.,
°C
wind,
m/s
gust,
m/s
humid.,
%
clouds,
%
prec.,
mm/h
press.,
hPa
HPBL,
m
13 april, tue
tue1300:00+7wnw2388100 0.0 1023155
03:00+6w1289100 0.0 102382
06:00+6sw1189100 0.0 102336
09:00+8nnw1282100 0.0 1023268
12:00+8n0181100 0.1 1022414
15:00+8w2283100 0.1 1022387
18:00+8wnw128991 0.0 1022160
21:00+7w2390100 0.0 1021109
14 april, wed
wed1400:00+7wnw2495100 0.6 1020138
03:00+7w3596100 5.4 1019204
06:00+7w3894100 0.9 1018340
09:00+8wnw4789100 0.9 1019454
12:00+12wnw566997 0.0 10171066
15:00+12nw5669100 0.1 1017987
18:00+11wnw3577100 0.0 1017241
21:00+8w228647 0.0 101811
15 april, thu
thu1500:00+7w11860 0.0 101710
03:00+6sw11865 0.0 101710
06:00+6sw11852 0.0 101810
09:00+13ene11635 0.0 1017423
12:00+17ne224022 0.0 10151401
15:00+18ne32362 0.0 10151838
18:00+15nne345477 0.0 101582
21:00+12ene1160100 0.1 101614
16 april, fri
fri1600:00+12e226361 0.0 101642
03:00+9ese2273100 0.0 101618
06:00+9ese2273100 0.0 101621
09:00+13e3562100 0.0 1016486
12:00+18ese564838 0.0 10141458
15:00+19e8943100 0.0 10111833
18:00+11ne2787100 16.5 1016324
21:00+9wnw3495100 17.1 1018137
17 april, sat
sat1700:00+9nw4596100 1.8 1018418
03:00+8n2497100 6.2 1018292
06:00+8nw4797100 8.8 1020455
09:00+8nw3590100 11.2 1021442
12:00+8nnw3688100 0.6 1022533
15:00+8wsw2385100 0.8 1023203
18:00+8s1286100 0.0 102399
21:00+8se2288100 0.0 102253